Volver al catálogo

SL-16 DEB

LostLEO
NORAD 39875·DEBRIS·🇷🇺 Russia

Lanzado Mar 26, 1993 desde Baikonur Cosmodrome

Loading…

Próximos Pases (próximas 24 horas)

TLE

ObsoletoSource: Space-Track

Época: Jul 19, 2014, 01:24 UTC

1 39875U 93016AZ  14200.05863342 +.00003955 +00000-0 +20426-2 0  9997
2 39875 070.9598 097.1391 0139072 304.2127 044.7489 14.10752638505837

Sigue SL-16 DEB en tiempo real con AllMySat

Download on the App Store